Home   Weather   Cagliari   Past weeks

Flag for Italy Past Weather in Cagliari, Italy — Yesterday and Last 2 Weeks

Now
63 °F

Passing clouds.


Feels Like: 63 °F
Forecast: 46 / 62 °F
Wind: 3 mph from Southwest

Location: Cagliari / Elmas

Current Time: Dec 9, 2016 at 2:56:23 pm

Latest Report: Dec 9, 2016 at 1:50 pm


Visibility: N/A

Pressure: 30.48 "Hg

Humidity: 59%

Dew Point: 48 °F

Location of CagliariLocation

Past Weather in Cagliari — Graph

°F

Cagliari Temperature Yesterday

Maximum temperature yesterday: 66 °F (at 12:20 pm)
Minimum temperature yesterday: 50 °F (at 10:20 pm)
Average temperature yesterday: 58 °F

High & Low Weather Summary for the Past Weeks

 TemperatureHumidityPressure
High66 °F (Nov 24, 3:20 pm)100% (Nov 24, 11:20 pm)30.54 "Hg (Nov 24, 11:20 pm)
Low34 °F (Dec 1, 7:20 am)44% (Nov 30, 1:20 pm)29.77 "Hg (Nov 24, 3:50 pm)
Average54 °F83%30.14 "Hg
* Reported Nov 24 1:20 pm — Dec 9 1:20 pm, Cagliari, Weather by CustomWeather, © 2016

Note: Actual official high and low records may vary slightly from our data, if they occured in-between our weather recording intervals... More about our weather records

Advertising

Cagliari Weather History for the Previous 24 Hours

Scroll right to see more
 ConditionsComfort  
Time TempWeatherWind HumidityBarometerVisibility
1:20 pm
Fri, Dec 9
63 °FSunny.2 mph64%30.48 "Hg10 mi
12:50 pm63 °FSunny.2 mph64%30.48 "Hg10 mi
12:20 pm61 °FSunny.2 mph63%30.51 "Hg10 mi
11:50 am59 °FSunny.2 mph72%30.51 "Hg10 mi
11:20 am55 °FSunny.3 mph82%30.51 "Hg10 mi
10:50 am54 °FPassing clouds.3 mph82%30.54 "HgN/A
10:20 am52 °FSunny.6 mph88%30.54 "Hg10 mi
9:50 am50 °FSunny.6 mph88%30.51 "Hg10 mi
9:20 am48 °FSunny.6 mph87%30.51 "Hg10 mi
8:50 am46 °FPassing clouds.3 mph93%30.51 "HgN/A
8:20 am43 °FSunny.3 mph100%30.51 "Hg10 mi
7:50 am43 °FSunny.3 mph100%30.51 "Hg10 mi
7:20 am45 °FClear.3 mph93%30.51 "Hg10 mi
6:50 am43 °FClear.5 mph93%30.51 "Hg10 mi
6:20 am43 °FClear.7 mph93%30.51 "Hg10 mi
5:50 am43 °FClear.6 mph93%30.51 "Hg10 mi
5:20 am43 °FClear.6 mph100%30.51 "Hg10 mi
4:50 am45 °FClear.5 mph93%30.51 "Hg10 mi
4:20 am45 °FClear.5 mph93%30.51 "Hg10 mi
3:50 am45 °FClear.2 mph100%30.51 "Hg10 mi
2:50 am45 °FClear.7 mph100%30.51 "Hg5 mi
2:20 am46 °FClear.5 mph93%30.51 "Hg10 mi
1:50 am45 °FClear.6 mph93%30.51 "Hg10 mi
1:20 am46 °FClear.5 mph93%30.51 "Hg10 mi
12:50 am48 °FClear.5 mph94%30.51 "Hg10 mi
11:50 pm
Thu, Dec 8
50 °FClear.5 mph88%30.54 "Hg10 mi
11:20 pm50 °FClear.5 mph88%30.54 "Hg10 mi
10:50 pm50 °FPassing clouds.5 mph94%30.54 "HgN/A
10:20 pm50 °FPassing clouds.3 mph94%30.54 "HgN/A
9:50 pm52 °FClear.2 mph88%30.54 "Hg10 mi
9:20 pm54 °FClear.2 mph77%30.54 "Hg10 mi
8:50 pm55 °FClear.3 mph77%30.54 "Hg10 mi
8:20 pm57 °FClear.6 mph72%30.54 "Hg10 mi
7:50 pm55 °FClear.3 mph72%30.54 "Hg10 mi
7:20 pm57 °FClear.8 mph72%30.51 "Hg10 mi
6:50 pm59 °FClear.13 mph68%30.51 "Hg10 mi
6:20 pm59 °FClear.15 mph68%30.51 "Hg10 mi
5:50 pm59 °FClear.12 mph68%30.51 "Hg10 mi
5:20 pm61 °FClear.13 mph63%30.51 "Hg10 mi
4:50 pm61 °FPassing clouds.13 mph63%30.51 "HgN/A
4:20 pm63 °FPassing clouds.12 mph59%30.51 "HgN/A
3:50 pm63 °FPassing clouds.13 mph64%30.48 "HgN/A
3:20 pm63 °FPassing clouds.12 mph64%30.48 "HgN/A
2:50 pm63 °FPassing clouds.12 mph68%30.48 "HgN/A
2:20 pm64 °FPassing clouds.12 mph64%30.48 "HgN/A
Weather by CustomWeather, © 2016

See weather overviewHow to use our weather pages